Location: ?ern� Novina
(50.6762°N, 14.8696°E)
Time: 02:57:19
(UTC+00:00)

ERBS - Pass Details

Date: 03 March 2021
Orbit: 408 x 412 km, 57.0° (Epoch: 13 April)

Event Time Altitude Azimuth Distance (km) Brightness Sun altitude
Rises 17:21:08 0° 234° (SW) 2,346 7.1 -6.4°
Reaches altitude 10° 17:23:12 10° 233° (SW) 1,485 6.0 -6.8°
Maximum altitude 17:26:31 81° 147° (SSE) 425 2.2 -7.3°
Drops below altitude 10° 17:29:51 10° 60° (ENE) 1,490 4.5 -7.8°
Enters shadow 17:30:15 - 59° (ENE) 1,654 4.7 -7.9°
